Deering, AK

12:49 AM AKDT on August 18, 2017 (GMT -0800)
Deering (New)

Weather History for PADE - February, 2014

Change the Weather History Date:

Sunday, February 23, 2014

  Actual Average (PAOT) Record (PAOT)
Temperature  
Mean Temperature 17 °F -  
Max Temperature 19 °F 3 °F 36 °F (2015)
Min Temperature 12 °F -11 °F -50 °F (1968)
Degree Days  
Heating Degree Days 48    
Moisture  
Dew Point 9 °F    
Average Humidity 70    
Maximum Humidity 74    
Minimum Humidity 65    
Precipitation  
Precipitation 0.00 in - - ()
Sea Level Pressure  
Sea Level Pressure 29.88 in    
Wind  
Wind Speed 18 mph (ENE)    
Max Wind Speed 29 mph    
Max Gust Speed 34 mph    
Visibility 10 miles    
Events      
Averages and records for this station are not official NWS values.
T = Trace of Precipitation, MM = Missing Value Source: NWS Daily Summary

Daily Weather History Graph

Daily Weather History Graph

Search for Another Location

Airport or City:

Trip Planner

Search our weather history database for the weather conditions in past years. The results will help you decide how hot, cold, wet, or windy it might be!

Date:

Astronomy

Feb. 23, 2014 Rise Set
Actual Time 9:25 AM AKST 6:44 PM AKST
Civil Twilight 8:32 AM AKST 7:37 PM AKST
Nautical Twilight 7:33 AM AKST 8:37 PM AKST
Astronomical Twilight 6:33 AM AKST 9:37 PM AKST
Moon 6:07 AM AKST (2/23) 11:25 AM AKST (2/23)
Length of Visible Light 11h 05m
Length of Day
9h 18m
Last Quarter, 37% of the Moon is Illuminated
Feb 23
Last Quarter
Feb 28
New
Mar 8
First Quarter
Mar 16
Full
Mar 23
Last Quarter

Hourly Weather History & Observations

Time (AKST) Temp. Windchill Dew Point Humidity Pressure Visibility Wind Dir Wind Speed Gust Speed Precip Events Conditions
12:53 AM 15.1 °F -5.0 °F 8.1 °F 74% 29.92 in 9.0 mi East 28.8 mph 34.5 mph N/A   Overcast
1:53 AM 15.1 °F -1.1 °F 7.0 °F 70% 29.93 in 10.0 mi East 17.3 mph - N/A   Overcast
2:53 AM 16.0 °F 1.7 °F 8.1 °F 71% 29.92 in 10.0 mi ENE 13.8 mph - N/A   Overcast
3:53 AM 16.0 °F 0.6 °F 7.0 °F 68% 29.90 in 10.0 mi ENE 16.1 mph - N/A   Overcast
4:53 AM 17.1 °F 3.6 °F 8.1 °F 68% 29.89 in 10.0 mi NE 12.7 mph 20.7 mph N/A   Overcast
5:53 AM 17.1 °F 2.5 °F 9.0 °F 71% 29.88 in 10.0 mi ENE 15.0 mph 26.5 mph N/A   Overcast
6:53 AM 17.1 °F 0.1 °F 9.0 °F 71% 29.87 in 10.0 mi NE 20.7 mph 27.6 mph N/A   Overcast
7:53 AM 18.0 °F 1.3 °F 10.0 °F 71% 29.87 in 10.0 mi ENE 20.7 mph - N/A   Overcast
8:53 AM 17.1 °F -1.4 °F 9.0 °F 71% 29.86 in 6.0 mi East 25.3 mph - N/A   Haze
9:53 AM 16.0 °F -1.7 °F 8.1 °F 71% 29.88 in 10.0 mi East 21.9 mph 27.6 mph N/A   Overcast
10:53 AM 17.1 °F 2.0 °F 8.1 °F 68% 29.88 in 10.0 mi East 16.1 mph 31.1 mph N/A   Overcast
11:53 AM 16.0 °F -2.5 °F 8.1 °F 71% 29.86 in 10.0 mi East 24.2 mph - N/A   Partly Cloudy
12:53 PM 16.0 °F 0.6 °F 9.0 °F 74% 29.86 in 10.0 mi ENE 16.1 mph - N/A   Overcast
1:53 PM 16.0 °F 3.6 °F 9.0 °F 74% 29.88 in 10.0 mi ENE 10.4 mph - N/A   Overcast
2:53 PM 17.1 °F 0.6 °F 7.0 °F 65% 29.88 in 10.0 mi ENE 19.6 mph - N/A   Overcast
3:53 PM 18.0 °F 4.2 °F 10.0 °F 71% 29.86 in 10.0 mi East 13.8 mph - N/A   Overcast
4:53 PM 19.0 °F 6.1 °F 10.9 °F 71% 29.85 in 10.0 mi East 12.7 mph - N/A   Mostly Cloudy
5:53 PM 19.0 °F 5.6 °F 10.9 °F 71% 29.84 in 10.0 mi NE 13.8 mph - N/A   Scattered Clouds
6:53 PM 19.9 °F - 12.0 °F 71% 29.85 in 10.0 mi Calm Calm - N/A   Overcast
7:53 PM 17.1 °F 5.0 °F 9.0 °F 71% 29.86 in 10.0 mi NE 10.4 mph - N/A   Partly Cloudy
8:53 PM 16.0 °F 6.3 °F 8.1 °F 71% 29.88 in 10.0 mi East 6.9 mph - N/A   Clear
9:53 PM 19.0 °F 4.0 °F 9.0 °F 65% 29.88 in 10.0 mi East 17.3 mph - N/A   Clear
10:53 PM 15.1 °F 5.2 °F 7.0 °F 70% 29.91 in 10.0 mi East 6.9 mph - N/A   Clear
11:53 PM 12.9 °F 3.8 °F 5.0 °F 71% 29.92 in 10.0 mi NNE 5.8 mph - N/A   Clear